Vorticity
5 5 5 5 6 5 5 6 5 12 10 8 12 6 7 4 1 7 5 3 0 2 5 5 -2 11 5 6 6 6 8 5 3 4 5 4 5 4 4 4 3 3 3 5 5 6 8 6 6
8 6 6 6 6 6 4 7 9 10 13 14 17 15 4 7 2 6 4 2 2 2 6 5 1 7 8 4 6 6 8 5 4 5 5 5 4 4 4 4 3 3 4 4 4 5 5 8 7
6 7 5 7 7 6 3 5 1 3 8 10 15 21 16 6 2 -1 11 4 5 3 -0 2 6 -0 10 5 6 7 9 5 4 5 5 5 4 4 4 3 3 3 4 4 4 6 6 6 8
6 6 7 4 3 4 5 5 3 5 2 8 9 19 18 15 3 7 2 3 3 5 2 2 5 1 7 7 6 8 10 6 4 5 5 4 4 4 3 3 3 4 4 4 3 5 6 6 5
8 8 8 5 5 4 5 4 6 5 6 7 7 15 18 23 13 5 6 4 2 4 6 2 1 7 5 7 6 9 10 6 4 5 5 4 4 4 3 2 3 3 4 4 2 1 6 6 6
9 8 8 7 7 8 3 7 6 8 7 7 9 11 19 26 28 9 6 5 2 4 3 4 -1 4 5 8 6 9 11 5 4 5 4 4 4 3 2 2 3 3 4 4 4 3 4 5 4
7 8 8 8 7 9 7 9 7 7 7 6 11 15 23 20 25 22 9 6 3 3 4 5 3 -1 2 8 6 8 10 5 4 4 4 4 4 3 2 2 3 3 4 4 4 3 5 5 5
7 8 6 6 6 7 9 11 9 7 9 9 8 14 20 15 19 24 11 9 3 2 5 3 5 1 2 7 7 8 8 5 4 5 4 4 4 3 3 2 3 3 4 4 3 3 5 6 7
6 4 7 5 7 8 9 9 9 9 10 12 12 13 19 11 13 32 22 11 7 4 3 6 5 3 3 6 7 7 6 4 5 4 4 3 4 3 3 3 3 4 4 4 3 3 9 10 9
4 4 6 6 6 8 8 8 7 10 15 22 9 11 24 26 13 32 27 14 8 3 4 4 5 3 5 6 7 6 6 4 6 4 5 4 4 4 3 3 3 4 4 3 4 6 8 3 5
6 4 7 6 7 7 8 7 8 11 23 6 16 22 25 22 23 36 23 18 10 -1 8 4 4 3 6 4 8 6 5 5 5 4 4 4 4 4 3 3 4 4 3 4 4 5 4 5 3
6 5 6 7 7 7 7 7 8 14 20 12 16 9 23 31 17 26 14 27 11 0 20 5 4 2 4 4 7 6 5 4 5 5 3 4 4 4 4 3 4 4 3 4 4 3 4 4 3
6 6 7 7 7 6 7 11 10 5 20 15 22 7 22 25 11 24 12 30 14 11 -11 0 8 -1 4 4 5 6 6 4 5 6 4 3 4 4 4 4 4 3 4 4 4 3 3 4 5
5 6 7 7 6 6 5 10 15 7 21 14 9 23 4 28 7 3 13 34 15 18 4 22 19 1 2 3 5 8 5 5 4 6 5 4 3 4 4 4 4 4 3 3 3 3 4 3 3
5 6 7 8 7 6 6 12 9 11 13 5 4 12 6 14 22 -1 24 41 12 -3 6 9 -0 12 1 2 6 5 5 6 4 5 5 4 4 4 4 4 4 4 4 3 2 4 4 3 4
6 5 5 8 6 7 5 7 6 15 14 18 11 8 24 17 22 15 14 44 16 4 -25 -33 69 1 1 4 2 5 6 5 6 5 6 5 4 4 5 4 4 4 4 4 4 4 3 -0 1
7 4 6 7 4 8 6 3 5 12 15 15 11 30 35 40 15 15 14 45 12 6 -13 31 -56 46 -15 45 4 -2 1 6 6 5 5 6 4 5 5 4 4 3 3 4 5 3 2 1 -0
9 6 5 6 8 9 7 5 8 9 13 12 11 28 30 17 18 15 20 40 18 5 9 -55 29 -20 -0 59 -18 -19 2 5 5 6 5 4 5 4 5 5 4 3 3 3 5 4 2 -0 -1
9 7 7 7 7 7 6 7 6 6 13 17 18 22 12 17 16 19 21 25 36 6 4 -0 -71 -28 73 41 -41 19 6 5 7 6 7 5 4 5 4 5 5 3 4 3 4 7 2 0 -1
6 7 8 9 4 7 6 9 4 8 8 15 14 15 13 15 22 15 26 28 39 17 7 6 -7 -56 15 -9 50 36 11 3 4 5 5 6 5 5 5 5 4 4 4 4 4 6 4 0 -1
12 12 9 10 5 8 8 13 8 7 10 11 16 10 16 11 13 14 19 33 27 11 16 1 12 38 -61 4 31 17 33 -1 6 12 7 6 6 5 5 4 5 3 2 3 5 7 7 -1 -4
16 13 10 9 8 10 9 2 14 10 9 4 8 10 12 13 13 8 13 13 28 29 21 16 25 15 18 13 40 10 50 -7 -2 9 9 8 7 6 5 5 5 3 3 4 5 4 2 -1 4
10 5 7 7 9 10 11 4 12 8 10 6 6 6 11 9 14 10 7 8 11 22 29 27 18 23 19 5 -46 27 31 50 34 1 8 7 5 6 6 6 5 5 3 4 4 4 3 3 3
-1 2 4 10 10 3 12 9 4 1 12 8 4 6 6 12 18 13 14 10 7 10 13 22 27 17 10 4 -9 -32 -22 63 29 6 8 8 6 7 6 5 4 4 3 3 4 3 4 3 2
6 1 10 15 11 4 6 9 4 12 15 7 5 3 6 6 8 9 17 23 22 10 8 9 17 25 21 9 6 14 2 15 31 46 -9 8 7 7 9 8 6 5 3 3 3 3 3 2 3
10 11 8 9 5 7 14 16 7 11 -2 11 15 15 7 12 6 6 11 10 19 19 13 4 9 2 23 15 1 6 8 14 11 -40 -41 55 8 3 3 6 7 6 5 5 4 3 2 2 2
15 11 12 8 8 10 14 11 14 1 8 1 1 3 5 12 20 7 8 9 10 19 20 21 10 5 3 13 9 18 9 7 4 10 22 -33 85 -3 13 5 2 4 5 6 6 6 6 3 3
9 10 9 8 6 4 2 15 3 6 13 7 12 8 11 10 3 3 21 7 5 6 14 24 31 20 14 11 5 3 5 0 7 -1 1 10 15 40 31 -1 2 11 8 8 7 5 6 6 6
13 7 4 5 3 5 2 0 5 -0 10 2 3 9 9 6 6 10 1 24 5 6 2 16 22 28 21 13 18 17 11 16 21 5 2 -4 -1 8 29 43 60 23 -16 -3 10 9 6 -4 5
8 8 6 7 8 4 5 -0 -13 1 -7 -1 1 1 2 5 10 8 10 1 21 8 4 9 13 23 30 17 10 13 13 9 13 9 15 6 8 1 26 1 -8 33 40 49 29 24 22 -15 -2
Height
5795 5794 5794 5793 5795 5792 5792 5790 5791 5792 5791 5790 5792 5797 5798 5799 5803 5807 5805 5810 5813 5815 5819 5821 5823 5825 5826 5829 5831 5833 5835 5838 5840 5843 5845 5846 5848 5849 5851 5852 5854 5855 5856 5857 5857 5858 5858 5858 5859
5790 5789 5789 5788 5788 5785 5786 5783 5785 5785 5784 5785 5787 5788 5788 5790 5796 5795 5798 5803 5806 5811 5814 5816 5819 5821 5823 5825 5827 5829 5832 5835 5838 5840 5843 5845 5846 5848 5850 5851 5852 5854 5855 5856 5857 5857 5857 5858 5858
5785 5784 5784 5782 5782 5780 5779 5776 5778 5778 5776 5777 5777 5777 5779 5781 5780 5782 5791 5795 5797 5803 5808 5811 5814 5816 5818 5821 5823 5825 5828 5831 5835 5838 5840 5842 5844 5846 5848 5850 5851 5853 5854 5855 5856 5857 5857 5857 5858
5778 5778 5777 5776 5775 5773 5772 5769 5770 5770 5769 5767 5768 5768 5770 5770 5773 5776 5786 5788 5791 5795 5801 5805 5808 5811 5813 5816 5819 5821 5824 5827 5831 5834 5837 5840 5842 5844 5846 5848 5850 5851 5853 5854 5855 5856 5857 5857 5858
5772 5771 5770 5769 5768 5766 5764 5762 5761 5761 5759 5757 5757 5756 5759 5758 5757 5767 5773 5780 5782 5787 5792 5798 5802 5805 5808 5811 5814 5817 5820 5823 5827 5831 5834 5837 5839 5841 5844 5846 5848 5850 5851 5852 5854 5855 5855 5857 5857
5767 5765 5764 5761 5759 5758 5757 5755 5753 5752 5749 5746 5744 5743 5746 5742 5746 5756 5762 5768 5772 5779 5784 5790 5794 5799 5802 5806 5809 5812 5815 5819 5823 5827 5830 5833 5836 5838 5841 5843 5846 5848 5850 5851 5852 5854 5854 5855 5856
5761 5760 5758 5756 5753 5751 5748 5745 5743 5741 5739 5736 5730 5730 5731 5730 5727 5743 5751 5757 5762 5769 5775 5782 5787 5792 5796 5799 5803 5807 5810 5814 5818 5822 5826 5829 5832 5835 5838 5841 5844 5846 5848 5850 5851 5852 5853 5854 5855
5756 5754 5751 5748 5745 5743 5739 5736 5733 5731 5728 5723 5717 5716 5715 5715 5713 5726 5735 5744 5751 5758 5767 5774 5779 5784 5790 5793 5797 5801 5805 5809 5813 5817 5822 5825 5829 5831 5835 5838 5841 5843 5845 5847 5848 5850 5851 5852 5852
5750 5747 5744 5740 5738 5735 5731 5728 5722 5719 5716 5710 5704 5700 5703 5703 5703 5713 5722 5732 5739 5746 5758 5766 5772 5777 5782 5787 5791 5795 5799 5804 5808 5812 5817 5821 5825 5828 5831 5834 5837 5840 5842 5844 5846 5847 5849 5850 5850
5742 5740 5737 5733 5730 5727 5722 5718 5713 5709 5702 5698 5690 5687 5686 5689 5686 5696 5704 5716 5727 5737 5748 5756 5763 5769 5774 5779 5784 5789 5794 5799 5803 5808 5812 5817 5821 5825 5828 5831 5834 5837 5839 5841 5844 5845 5847 5848 5849
5736 5733 5730 5726 5722 5718 5714 5708 5704 5697 5692 5683 5680 5678 5675 5674 5675 5682 5692 5703 5715 5728 5737 5746 5754 5761 5767 5773 5778 5783 5788 5793 5798 5803 5807 5812 5816 5820 5823 5827 5830 5833 5835 5838 5841 5843 5844 5846 5847
5731 5727 5723 5720 5715 5711 5706 5700 5697 5688 5683 5676 5672 5669 5666 5665 5669 5674 5681 5691 5703 5717 5730 5738 5745 5753 5759 5766 5771 5777 5781 5787 5792 5796 5801 5807 5811 5815 5819 5822 5826 5829 5832 5835 5837 5839 5841 5843 5844
5724 5721 5717 5713 5708 5703 5699 5691 5689 5682 5674 5670 5665 5663 5660 5659 5663 5666 5672 5680 5693 5708 5720 5729 5737 5745 5751 5758 5763 5769 5774 5780 5785 5790 5795 5800 5805 5810 5814 5817 5821 5825 5828 5831 5833 5836 5838 5840 5841
5718 5715 5711 5707 5702 5696 5692 5684 5679 5675 5668 5663 5659 5656 5654 5653 5656 5658 5664 5672 5684 5696 5706 5722 5729 5736 5743 5749 5755 5761 5767 5772 5777 5783 5788 5793 5798 5804 5809 5812 5816 5820 5823 5826 5829 5832 5834 5836 5837
5712 5709 5703 5699 5695 5690 5685 5677 5673 5668 5662 5657 5651 5647 5644 5644 5646 5651 5655 5661 5674 5683 5691 5698 5718 5727 5734 5740 5745 5752 5758 5764 5769 5775 5781 5786 5792 5797 5802 5806 5811 5814 5818 5822 5825 5827 5829 5831 5832
5706 5702 5698 5692 5688 5684 5679 5676 5665 5659 5655 5649 5643 5637 5633 5632 5635 5640 5644 5651 5662 5667 5676 5681 5700 5720 5726 5731 5738 5744 5750 5755 5760 5766 5773 5779 5785 5790 5795 5800 5805 5809 5812 5816 5819 5822 5825 5826 5828
5700 5696 5691 5686 5683 5677 5672 5670 5662 5655 5650 5643 5636 5628 5622 5623 5626 5632 5636 5642 5650 5656 5667 5677 5692 5707 5716 5720 5726 5732 5740 5745 5752 5758 5764 5770 5776 5782 5788 5794 5799 5803 5806 5811 5814 5816 5818 5820 5822
5692 5689 5686 5680 5677 5671 5666 5662 5658 5652 5645 5639 5632 5625 5621 5622 5624 5627 5629 5635 5642 5647 5658 5667 5673 5685 5687 5697 5714 5720 5730 5738 5742 5748 5755 5762 5768 5775 5781 5787 5792 5797 5800 5804 5808 5810 5812 5814 5816
5685 5682 5679 5676 5671 5667 5661 5657 5654 5648 5642 5637 5631 5625 5622 5622 5623 5624 5627 5630 5637 5644 5650 5657 5663 5670 5678 5685 5690 5709 5716 5728 5736 5741 5748 5755 5761 5767 5774 5779 5785 5789 5794 5796 5801 5804 5807 5809 5811
5677 5675 5673 5671 5666 5662 5657 5653 5649 5645 5640 5635 5630 5625 5622 5621 5621 5622 5625 5628 5635 5640 5644 5648 5651 5661 5669 5676 5678 5691 5701 5713 5725 5732 5738 5746 5753 5759 5765 5770 5776 5781 5786 5789 5793 5796 5800 5801 5803
5670 5667 5666 5663 5661 5657 5653 5648 5644 5640 5638 5634 5628 5624 5622 5620 5619 5620 5623 5626 5631 5637 5641 5644 5647 5653 5662 5666 5676 5686 5694 5705 5715 5725 5731 5737 5744 5750 5757 5762 5768 5773 5777 5781 5785 5788 5791 5794 5796
5662 5661 5659 5657 5654 5653 5648 5646 5641 5637 5634 5632 5627 5622 5620 5619 5617 5616 5619 5621 5627 5633 5637 5639 5642 5648 5655 5660 5666 5677 5683 5693 5701 5712 5722 5729 5736 5743 5748 5753 5759 5764 5768 5772 5776 5779 5783 5785 5787
5656 5654 5653 5651 5648 5647 5645 5642 5638 5635 5631 5628 5625 5621 5618 5617 5616 5614 5615 5617 5621 5626 5632 5635 5639 5643 5648 5654 5663 5670 5678 5683 5695 5702 5713 5721 5728 5734 5740 5744 5749 5754 5759 5763 5767 5770 5773 5776 5779
5648 5647 5646 5644 5643 5642 5640 5637 5635 5632 5629 5625 5622 5619 5617 5616 5615 5614 5614 5615 5618 5620 5626 5628 5633 5640 5645 5651 5657 5662 5669 5678 5684 5692 5705 5711 5718 5726 5733 5738 5743 5748 5752 5755 5758 5762 5765 5767 5770
5641 5640 5638 5637 5636 5636 5635 5632 5630 5627 5625 5622 5619 5617 5617 5616 5614 5613 5610 5613 5616 5617 5620 5624 5628 5635 5640 5646 5652 5656 5664 5670 5681 5688 5694 5703 5710 5718 5726 5731 5735 5740 5744 5747 5749 5752 5755 5757 5760
5632 5632 5632 5628 5629 5629 5629 5628 5626 5623 5620 5618 5617 5616 5615 5614 5612 5611 5609 5609 5612 5614 5616 5619 5623 5628 5635 5642 5649 5655 5659 5665 5671 5678 5685 5695 5700 5706 5712 5719 5724 5729 5733 5738 5741 5743 5746 5748 5749
5623 5623 5624 5622 5622 5622 5624 5624 5621 5619 5616 5616 5615 5614 5612 5611 5610 5608 5607 5607 5609 5610 5610 5613 5616 5621 5629 5634 5641 5650 5650 5660 5666 5668 5678 5685 5691 5697 5703 5707 5712 5717 5723 5728 5731 5734 5737 5738 5740
5615 5616 5617 5616 5615 5615 5618 5618 5615 5614 5613 5612 5610 5609 5608 5607 5606 5605 5604 5603 5604 5605 5606 5606 5608 5613 5618 5625 5631 5641 5645 5651 5658 5665 5671 5676 5682 5688 5691 5697 5703 5708 5712 5716 5720 5723 5726 5728 5729
5607 5607 5608 5608 5609 5608 5610 5613 5610 5608 5609 5607 5606 5605 5603 5603 5603 5602 5601 5600 5599 5600 5601 5601 5600 5603 5609 5615 5619 5627 5634 5644 5649 5657 5665 5669 5674 5679 5682 5687 5693 5697 5700 5704 5707 5711 5713 5715 5716
5598 5599 5599 5598 5602 5600 5603 5605 5606 5604 5601 5599 5600 5602 5600 5598 5597 5597 5596 5595 5594 5593 5594 5595 5595 5597 5598 5604 5610 5615 5621 5629 5640 5647 5655 5663 5665 5667 5673 5678 5681 5685 5689 5692 5696 5697 5698 5701 5701